TimeEDT,TemperatureF,Dew PointF,Humidity,Sea Level PressureIn,VisibilityMPH,Wind Direction,Wind SpeedMPH,Gust SpeedMPH,PrecipitationIn,Events,Conditions,WindDirDegrees,DateUTC
12:52 AM,60.1,53.1,78,29.90,10.0,Calm,Calm,-,N/A,,Overcast,0,2013-09-26 04:52:00
1:52 AM,60.1,53.1,78,29.91,10.0,Calm,Calm,-,0.00,Rain,Light Rain,0,2013-09-26 05:52:00
2:52 AM,59.0,54.0,83,29.91,9.0,Calm,Calm,-,0.00,,Overcast,0,2013-09-26 06:52:00
3:52 AM,59.0,54.0,83,29.91,5.0,Calm,Calm,-,N/A,,Haze,0,2013-09-26 07:52:00
4:30 AM,57.2,53.6,88,29.98,3.0,Calm,Calm,-,N/A,,Scattered Clouds,0,2013-09-26 08:30:00
4:52 AM,57.9,54.0,87,29.91,4.0,East,3.5,-,N/A,,Overcast,100,2013-09-26 08:52:00
5:07 AM,57.2,53.6,88,29.98,1.8,Calm,Calm,-,N/A,,Overcast,0,2013-09-26 09:07:00
5:10 AM,57.2,53.6,88,29.98,0.8,Calm,Calm,-,N/A,,Overcast,0,2013-09-26 09:10:00
5:22 AM,57.2,53.6,88,29.98,1.2,Calm,Calm,-,N/A,,Mostly Cloudy,0,2013-09-26 09:22:00
5:24 AM,57.2,53.6,88,29.98,2.5,Calm,Calm,-,N/A,,Mostly Cloudy,0,2013-09-26 09:24:00
5:31 AM,57.2,53.6,88,29.98,4.0,Calm,Calm,-,N/A,,Haze,0,2013-09-26 09:31:00
5:46 AM,57.2,51.8,82,29.98,1.8,Calm,Calm,-,N/A,,Haze,0,2013-09-26 09:46:00
5:50 AM,57.2,53.6,88,29.98,0.8,Calm,Calm,-,N/A,,Mostly Cloudy,0,2013-09-26 09:50:00
5:52 AM,57.0,53.1,87,29.92,0.5,Calm,Calm,-,N/A,Fog,Fog,0,2013-09-26 09:52:00
6:05 AM,57.2,51.8,82,29.99,1.5,Calm,Calm,-,N/A,,Haze,0,2013-09-26 10:05:00
6:12 AM,55.4,51.8,88,29.99,5.0,Calm,Calm,-,N/A,,Scattered Clouds,0,2013-09-26 10:12:00
6:27 AM,57.2,53.6,88,30.00,2.0,Calm,Calm,-,N/A,,Mostly Cloudy,0,2013-09-26 10:27:00
6:39 AM,57.2,53.6,88,30.00,2.5,Calm,Calm,-,N/A,,Mostly Cloudy,0,2013-09-26 10:39:00
6:44 AM,57.2,53.6,88,30.00,1.0,Calm,Calm,-,N/A,,Mostly Cloudy,0,2013-09-26 10:44:00
6:52 AM,57.0,53.1,87,29.94,0.5,Calm,Calm,-,N/A,Fog,Fog,0,2013-09-26 10:52:00
7:50 AM,57.2,53.6,88,30.02,1.2,Calm,Calm,-,N/A,,Overcast,0,2013-09-26 11:50:00
7:52 AM,57.9,54.0,87,29.96,1.5,Calm,Calm,-,N/A,,Overcast,0,2013-09-26 11:52:00
7:58 AM,57.2,53.6,88,30.02,3.0,ESE,3.5,-,N/A,,Overcast,110,2013-09-26 11:58:00
8:03 AM,57.2,53.6,88,30.03,1.5,Calm,Calm,-,N/A,,Overcast,0,2013-09-26 12:03:00
8:07 AM,57.2,53.6,88,30.03,0.8,Calm,Calm,-,N/A,,Overcast,0,2013-09-26 12:07:00
8:31 AM,57.2,53.6,88,30.03,1.2,Calm,Calm,-,N/A,,Overcast,0,2013-09-26 12:31:00
8:43 AM,59.0,53.6,82,30.04,2.5,Calm,Calm,-,N/A,,Haze,0,2013-09-26 12:43:00
8:50 AM,59.0,53.6,82,30.04,3.0,East,3.5,-,N/A,,Haze,90,2013-09-26 12:50:00
8:52 AM,59.0,54.0,83,29.98,3.0,Calm,Calm,-,N/A,,Haze,0,2013-09-26 12:52:00
9:37 AM,62.6,53.6,72,30.06,9.0,Calm,Calm,-,N/A,,Mostly Cloudy,0,2013-09-26 13:37:00
9:52 AM,63.0,54.0,72,29.99,10.0,North,3.5,-,N/A,,Mostly Cloudy,360,2013-09-26 13:52:00
10:18 AM,64.4,53.6,68,30.07,10.0,ENE,3.5,-,N/A,,Scattered Clouds,60,2013-09-26 14:18:00
10:44 AM,66.2,53.6,64,30.08,10.0,NE,4.6,-,N/A,,Mostly Cloudy,40,2013-09-26 14:44:00
10:52 AM,66.0,53.1,63,30.00,10.0,East,5.8,-,N/A,,Mostly Cloudy,80,2013-09-26 14:52:00
11:52 AM,68.0,54.0,61,29.99,10.0,Calm,Calm,-,N/A,,Mostly Cloudy,0,2013-09-26 15:52:00
12:37 PM,69.8,50.0,49,30.08,10.0,Variable,3.5,-,N/A,,Scattered Clouds,0,2013-09-26 16:37:00
12:52 PM,70.0,51.1,51,29.99,10.0,NNE,4.6,-,N/A,,Partly Cloudy,20,2013-09-26 16:52:00
1:52 PM,73.0,48.0,41,29.97,10.0,Calm,Calm,-,N/A,,Clear,0,2013-09-26 17:52:00
2:52 PM,73.0,46.9,39,29.97,10.0,Calm,Calm,-,N/A,,Partly Cloudy,0,2013-09-26 18:52:00
3:52 PM,73.9,48.9,41,29.97,10.0,East,3.5,-,N/A,,Scattered Clouds,80,2013-09-26 19:52:00
4:52 PM,75.9,48.0,37,29.97,10.0,Calm,Calm,-,N/A,,Overcast,0,2013-09-26 20:52:00
5:52 PM,73.0,50.0,44,29.99,10.0,North,3.5,-,N/A,,Partly Cloudy,360,2013-09-26 21:52:00
6:52 PM,69.1,51.1,53,30.01,10.0,Calm,Calm,-,N/A,,Partly Cloudy,0,2013-09-26 22:52:00
7:52 PM,66.0,51.1,59,30.02,10.0,Calm,Calm,-,N/A,,Mostly Cloudy,0,2013-09-26 23:52:00
8:52 PM,64.0,52.0,65,30.04,10.0,NNE,4.6,-,N/A,,Mostly Cloudy,20,2013-09-27 00:52:00
9:52 PM,63.0,53.1,70,30.06,10.0,Calm,Calm,-,N/A,,Mostly Cloudy,0,2013-09-27 01:52:00
10:52 PM,61.0,52.0,72,30.06,10.0,Calm,Calm,-,N/A,,Clear,0,2013-09-27 02:52:00
11:52 PM,59.0,53.1,81,30.06,10.0,Calm,Calm,-,N/A,,Clear,0,2013-09-27 03:52:00